Welcome to the New NWS' Forecast!
Most changes are behind the scenes, but click here for differences you might notice.
Latest weather observations around

Hot Springs, Memorial Field Airport (KHOT)

Using English Units (Switch to International System of Units)
Date/ Time (CST) Wind (mph) Vis. (mi) Weather Sky Cond. Temp (°F) Rel. Humidity Wind Chill (°F) Heat Index (°F) Pressure Precip. (in)
Air Dwpt 6 hour Altimeter (inHg) Sea level (inHg) 1 hr 3 hr 6 hr
Max Min
Jan 21 09:53 S 10 9 Cloudy OVC008 62 61     96%     30.03 30.02 0    
Jan 21 08:53 SSE 8 5 Light Rain and Fog/Mist OVC006 61 61     100%     30.02 30.01 0 0  
Jan 21 07:53 SSE 6 5 Fog/Mist OVC008 61 61     100%     30 29.99      
Jan 21 06:53 S 7 10 Cloudy OVC009 61 60     97%     30 29.99      
Jan 21 06:16 7 10 Cloudy OVC009 61 60     97%     30        
Jan 21 05:53 S 9 10 Cloudy OVC010 62 60     93%     30 29.99 0   0
Jan 21 05:34 SSW 8 10 Cloudy OVC010 62 60     93%     30.01   0    
Jan 21 04:53 S 7 10 Cloudy OVC008 61 60     97%     30 29.98      
Jan 21 03:53 SSE 6 10 Cloudy OVC009 61 59     93%     30 29.98 0    
Jan 21 02:53 S 9 10 Cloudy OVC011 61 59     93%     30.01 30      
Jan 21 01:53 S 7 10 Cloudy OVC011 61 59     93%     30.01 30      
Jan 21 00:53 S 10 10 Cloudy OVC010 60 58     93%     30.01 30      
Jan 20 23:53 S 5 10 Cloudy OVC010 60 58     93%     30.02 30.01      
Jan 20 22:53 SSE 8 10 Cloudy OVC011 60 58     93%     30.02 30.02      
Jan 20 21:01 5 10 Cloudy BKN014 OVC024 60 57     90%     30.04        
Jan 20 20:53 SSE 8 10 Cloudy BKN016 BKN025 OVC032 60 57     90%     30.03 30.02      
Jan 20 19:53 6 10 Cloudy BKN021 BKN026 OVC032 60 56     86%     30.04 30.03      
Jan 20 18:53 Calm 10 Cloudy BKN020 BKN025 OVC045 60 56     86%     30.03 30.02      
Jan 20 17:53 Calm 10 Cloudy BKN026 BKN034 OVC050 60 56     86%     30.03 30.02      
Notice The following observation data may not be complete
Jan 20 17:34   10 Cloudy FEW017 BKN033 OVC050          %              
Jan 20 16:53 SSE 6 10 Cloudy BKN017 OVC023 60 56     86%     30.03 30.02      
Jan 20 15:53 SE 6 10 Cloudy OVC015 59 54     83%     30.02 30.01      
Jan 20 14:53 Calm 10 Cloudy OVC015 58 49     72%     30.02 30.02      
Jan 20 13:53 SSE 5 10 Cloudy OVC016 56 47     72%     30.04 30.03      
Jan 20 13:25 6 10 Cloudy OVC015 55 47     74%     30.05        
Jan 20 12:53 SSE 6 10 Cloudy OVC013 54 47     77%     30.07 30.06      
Jan 20 11:53 S 7 10 Cloudy OVC011 52 47     83%     30.1 30.09     0
Jan 20 10:53 S 8 10 Cloudy OVC013 52 45     77%     30.12 30.12      
Jan 20 09:53 SSE 5 10 Cloudy OVC013 50 41     71% 48   30.13 30.12      
Jan 20 08:53 SSE 5 10 Cloudy OVC014 48 37     66% 46   30.12 30.11   0  
Jan 20 07:53 SSE 3 10 Cloudy OVC014 47 37     68% 46   30.1 30.1 0    
Jan 20 07:48 SE 5 10 Cloudy OVC014 46 36     66% 44   30.1   0    
Jan 20 07:32 SE 6 10 Cloudy OVC015 47 34     60% 44   30.1   0    
Jan 20 06:53 ESE 5 10 Cloudy OVC014 47 32     56% 45   30.1 30.09      
Jan 20 05:53 SE 6 10 Cloudy OVC016 46 27     47% 43   30.1 30.09      
Jan 20 04:53 E 3 10 Cloudy OVC017 46 25     43% 45   30.1 30.1      
Jan 20 03:53 ESE 5 10 Cloudy OVC018 47 25     42% 45   30.11 30.11      
Jan 20 02:53 Calm 10 Cloudy OVC017 47 24     40%     30.12 30.12      
Jan 20 01:53 Calm 10 Cloudy OVC018 47 23     39%     30.12 30.12      
Jan 20 01:00 Calm 10 Cloudy BKN021 OVC037 47 22     37%     30.13        
Jan 20 00:53 Calm 10 Cloudy SCT021 BKN037 OVC046 47 22     37%     30.13 30.12      
Jan 19 23:53 Calm 10 Cloudy OVC050 48 21     34%     30.13 30.13      
Jan 19 22:53 S 5 10 Cloudy SCT042 OVC050 48 20     33% 46   30.14 30.14      
Jan 19 21:53 SSE 3 10 Cloudy SCT035 OVC045 47 22     37% 46   30.13 30.13      
Jan 19 20:53 Calm 10 Cloudy OVC038 47 22     37%     30.14 30.14      
Jan 19 20:19 SE 3 10 Cloudy SCT025 OVC036 46 23     40% 45   30.14        
Jan 19 19:53 SE 3 10 Cloudy OVC023 45 24     44% 44   30.13 30.14      
Jan 19 19:12 SE 6 10 Cloudy BKN026 OVC033 45 24     44% 42   30.13        
Jan 19 18:53 SE 6 10 Cloudy OVC034 44 23     43% 41   30.13 30.14      
Jan 19 17:53 SE 6 10 Cloudy OVC035 44 23     43% 41   30.13 30.13      
Jan 19 16:53 3 10 Cloudy OVC035 45 23     42% 44   30.13 30.14      
Jan 19 15:53 S 6 10 Cloudy OVC035 45 23     42% 42   30.14 30.14      
Jan 19 14:53 S 6 10 Cloudy SCT025 OVC034 46 24     42% 43   30.14 30.15      
Jan 19 13:53 SSW 6 10 Cloudy OVC022 45 22     40% 42   30.16 30.16      
Jan 19 12:53 SSW 8 10 Cloudy BKN026 OVC032 45 22     40% 41   30.18 30.19      
Jan 19 12:31 SSW 7 10 Cloudy SCT025 OVC033 44 21     40% 40   30.19        
Jan 19 11:53 WSW 6 10 Cloudy BKN028 OVC036 42 20     41% 38   30.22 30.23      
Jan 19 11:22 WSW 7 10 Cloudy BKN029 OVC039 41 19     41% 36   30.24        
Jan 19 10:53 5 10 Cloudy FEW030 OVC039 41 21     45% 38   30.26 30.26      
Jan 19 10:19 3 10 Cloudy SCT027 OVC037 39 21     48% 37   30.27        
Jan 19 09:37 5 10 Cloudy BKN028 OVC037 37 20     50% 33   30.27        
Jan 19 08:53 SE 3 10 Cloudy OVC037 35 21     56% 32   30.25 30.26      
Jan 19 07:53 Calm 10 Cloudy OVC036 31 25     78%     30.26 30.27      
Jan 19 06:53 Calm 10 Cloudy OVC038 29 22     75%     30.25 30.27      
Jan 19 05:53 Calm 10 Mostly Clear FEW042 23 15     71%     30.26 30.27      
Jan 19 04:53 Calm 10 Clear CLR 24 16     71%     30.27 30.28      
Jan 19 03:53 Calm 10 Clear CLR 25 16     68%     30.29 30.29      
Jan 19 02:53 NW 3 10 Clear CLR 26 15     63% 22   30.3 30.31      
Jan 19 01:53 Calm 10 Clear CLR 24 17     74%     30.3 30.31      
Jan 19 00:53 Calm 10 Clear CLR 25 16     68%     30.32 30.32      
Jan 18 23:53 NNW 3 10 Clear CLR 25 15     66% 21   30.34 30.35      
Jan 18 22:53 Calm 10 Clear CLR 27 14     58%     30.36 30.37      
Jan 18 21:53 Calm 10 Clear CLR 26 14     60%     30.36 30.37      
Jan 18 20:53 Calm 10 Clear CLR 27 16     63%     30.36 30.37      
Jan 18 19:53 Calm 10 Clear CLR 33 13     43%     30.35 30.37      
Jan 18 18:53 SSW 3 10 Clear CLR 35 14     42% 32   30.37 30.38      
Jan 18 17:53 S 3 10 Clear CLR 37 11     34% 35   30.36 30.37      
Jan 18 16:53 SSW 6 10 Clear CLR 41 11     29% 37   30.36 30.37      
Jan 18 15:53 SW 6 10 Clear CLR 43 9     24% 39   30.37 30.38      
Jan 18 14:53 SW 7 10 Clear CLR 42 11     28% 38   30.4 30.41      
Jan 18 13:53 6 10 Clear CLR 41 10     28% 37   30.42 30.43      
Jan 18 12:53 SSW 9 10 Clear CLR 40 12     31% 34   30.45 30.46      
Jan 18 11:53 W 8 10 Clear CLR 37 11     34% 31   30.5 30.51      
Jan 18 10:53 SW 8 10 Clear CLR 33 12     41% 26   30.55 30.56      
Jun 11 21:53 SE 8 10 Clear   82 72     72%   87 29.98 29.96      
Jun 10 21:53 ESE 3 10 Clear CLR 76 63     64%   76 29.95 29.93      
Jun 10 10:53 S 10 10 Clear CLR 80 62     54%   81 30 29.98      
Jun 08 18:53 NE 9 10 Clear   80 54     41%   80 29.92 29.9      
Jun 08 13:53   10 Clear CLR 83 55     38%   82 29.99 29.98      
Jun 08 07:53 Calm 10 Clear CLR 64 59     84%     30.03 30.02      
Jun 06 10:53 ENE 10 10 Mostly Clear FEW033 83 71     67%   88 29.85 29.83      
Jun 06 01:07 Calm 10 Partly Cloudy SCT016 70 69     97%     29.81        
Notice The following observation data may not be complete
Jun 05 15:38   10 Mostly Clear FEW006          %